Location: Camaret
(48.2753°N, 4.5961°W)
Time: 11:04:39
(UTC+00:00)

X-37B - Pass Details

Date: 24 January 2021
Orbit: 383 x 391 km, 45.0° (Epoch: 27 February)

Event Time Altitude Azimuth Distance (km) Brightness Sun altitude
Rises 19:59:05 0° 269° (W) 2,277 5.7 -28.7°
Reaches altitude 10° 20:01:14 10° 261° (W) 1,422 4.3 -29.0°
Enters shadow 20:01:46 14° 258° (WSW) 1,221 3.9 -29.1°
